Terminal Aerodrome Forecast
Issued by NWS

Home | Current Version | Previous Version | Text Only | Print | Product List | Glossary On
Versions: 1 2 3 4 5 6 7 8 9 10 11 12 13 14 15 16
000
FTAK31 PAFA 181126
TAFABT
TAF
PABT 181126Z 1812/1912 01006KT P6SM OVC050
     FM181700 35006KT P6SM SCT040 BKN100
     FM190100 02005KT P6SM BKN040=

USA.gov is the U.S. government's official web portal to all federal, state and local government web resources and services.